• In Netherlands
  • List of Countries
  • For 7 days
  • Water Temperature
  • Satellite Maps
  • Weather Map
  • Weather Widgets
  • user-avatar
    Login

    Hourly Weather Biskira

    Today, 18 August, Friday

    Time Temperature Precipitation Wind Pressure Humidity
    00:00 +37°C° 0 mm 3 mps 752 mmHg 26%
    01:00 +37°C° 0 mm 3 mps 752 mmHg 26%
    02:00 +36°C° 0 mm 3 mps 753 mmHg 27%
    03:00 +36°C° 0 mm 3 mps 753 mmHg 27%
    04:00 +35°C° 0 mm 3 mps 753 mmHg 27%
    05:00 +35°C° 0 mm 3 mps 753 mmHg 27%
    06:00 +35°C° 0 mm 3 mps 753 mmHg 28%
    07:00 +36°C° 0 mm 3 mps 753 mmHg 26%
    08:00 +37°C° 0 mm 3 mps 753 mmHg 25%
    09:00 +38°C° 0 mm 4 mps 754 mmHg 24%
    10:00 +38°C° 0 mm 4 mps 753 mmHg 22%
    11:00 +40°C° 0 mm 4 mps 753 mmHg 21%
    12:00 +41°C° 0 mm 4 mps 753 mmHg 20%
    13:00 +42°C° 0 mm 4 mps 752 mmHg 20%
    14:00 +42°C° 0 mm 3 mps 752 mmHg 19%
    15:00 +43°C° 0 mm 3 mps 752 mmHg 19%
    16:00 +42°C° 0 mm 3 mps 751 mmHg 19%
    17:00 +42°C° 0 mm 3 mps 751 mmHg 19%
    18:00 +42°C° 0 mm 3 mps 751 mmHg 19%
    19:00 +40°C° 0 mm 3 mps 751 mmHg 20%
    20:00 +40°C° 0 mm 3 mps 752 mmHg 21%
    21:00 +39°C° 0 mm 3 mps 752 mmHg 22%
    22:00 +38°C° 0 mm 3 mps 752 mmHg 23%
    23:00 +38°C° 0 mm 2 mps 752 mmHg 24%

    Tomorrow, 19 August, Saturday

    Time Temperature Precipitation Wind Pressure Humidity
    00:00 +37°C° 0 mm 2 mps 752 mmHg 25%
    01:00 +35°C° 0 mm 1 mps 752 mmHg 26%
    02:00 +35°C° 0 mm 1 mps 752 mmHg 27%
    03:00 +34°C° 0 mm 1 mps 751 mmHg 28%
    04:00 +34°C° 0 mm 1 mps 752 mmHg 27%
    05:00 +35°C° 0 mm 2 mps 752 mmHg 27%
    06:00 +35°C° 0 mm 2 mps 752 mmHg 27%
    07:00 +36°C° 0 mm 2 mps 752 mmHg 25%
    08:00 +38°C° 0 mm 3 mps 753 mmHg 23%
    09:00 +39°C° 0 mm 3 mps 753 mmHg 21%
    10:00 +40°C° 0 mm 3 mps 753 mmHg 20%
    11:00 +42°C° 0 mm 3 mps 752 mmHg 18%
    12:00 +43°C° 0 mm 3 mps 752 mmHg 17%
    13:00 +43°C° 0 mm 3 mps 751 mmHg 16%
    14:00 +44°C° 0 mm 3 mps 751 mmHg 16%
    15:00 +45°C° 0 mm 3 mps 751 mmHg 15%
    16:00 +44°C° 0 mm 3 mps 751 mmHg 15%
    17:00 +44°C° 0 mm 3 mps 750 mmHg 15%
    18:00 +44°C° 0 mm 3 mps 750 mmHg 15%
    19:00 +43°C° 0 mm 3 mps 751 mmHg 17%
    20:00 +42°C° 0 mm 3 mps 752 mmHg 19%
    21:00 +40°C° 0 mm 3 mps 752 mmHg 20%
    22:00 +40°C° 0 mm 3 mps 752 mmHg 22%
    23:00 +39°C° 0 mm 3 mps 752 mmHg 24%

    Day after tomorrow, 20 August, Sunday

    Time Temperature Precipitation Wind Pressure Humidity
    00:00 +38°C° 0 mm 3 mps 752 mmHg 25%
    01:00 +38°C° 0 mm 3 mps 752 mmHg 26%
    02:00 +37°C° 0 mm 3 mps 752 mmHg 27%
    03:00 +36°C° 0 mm 3 mps 752 mmHg 28%
    04:00 +36°C° 0 mm 3 mps 752 mmHg 28%
    05:00 +36°C° 0 mm 3 mps 753 mmHg 28%
    06:00 +36°C° 0 mm 3 mps 753 mmHg 28%
    07:00 +37°C° 0 mm 4 mps 753 mmHg 26%
    08:00 +38°C° 0 mm 4 mps 753 mmHg 23%
    09:00 +41°C° 0 mm 4 mps 753 mmHg 21%
    10:00 +42°C° 0 mm 4 mps 753 mmHg 20%
    11:00 +42°C° 0 mm 4 mps 753 mmHg 18%
    12:00 +43°C° 0 mm 3 mps 752 mmHg 17%
    13:00 +44°C° 0 mm 3 mps 752 mmHg 17%
    14:00 +44°C° 0 mm 3 mps 752 mmHg 16%
    15:00 +43°C° 0 mm 2 mps 751 mmHg 16%
    16:00 +43°C° 0 mm 2 mps 751 mmHg 16%
    17:00 +43°C° 0 mm 2 mps 751 mmHg 16%
    18:00 +42°C° 0 mm 2 mps 751 mmHg 16%
    19:00 +41°C° 0 mm 2 mps 752 mmHg 18%
    20:00 +42°C° 0 mm 3 mps 752 mmHg 20%
    21:00 +41°C° 0 mm 4 mps 753 mmHg 22%
    22:00 +40°C° 0 mm 4 mps 753 mmHg 24%
    23:00 +38°C° 0 mm 4 mps 753 mmHg 27%

    21 August, Monday

    Time Temperature Precipitation Wind Pressure Humidity
    00:00 +37°C° 0 mm 4 mps 753 mmHg 29%
    01:00 +36°C° 0 mm 3 mps 753 mmHg 31%
    02:00 +36°C° 0 mm 3 mps 753 mmHg 32%
    03:00 +35°C° 0 mm 3 mps 752 mmHg 34%
    04:00 +35°C° 0 mm 3 mps 753 mmHg 34%
    05:00 +34°C° 0 mm 2 mps 753 mmHg 35%
    06:00 +34°C° 0 mm 2 mps 753 mmHg 36%
    07:00 +35°C° 0 mm 2 mps 753 mmHg 34%
    08:00 +36°C° 0 mm 3 mps 753 mmHg 31%
    09:00 +37°C° 0 mm 3 mps 753 mmHg 29%
    10:00 +38°C° 0 mm 3 mps 753 mmHg 27%
    11:00 +39°C° 0 mm 3 mps 753 mmHg 25%
    12:00 +40°C° 0 mm 2 mps 752 mmHg 22%
    13:00 +40°C° 0 mm 3 mps 752 mmHg 21%
    14:00 +42°C° 0 mm 3 mps 751 mmHg 19%
    15:00 +43°C° 0 mm 3 mps 751 mmHg 18%
    16:00 +42°C° 0 mm 3 mps 751 mmHg 17%
    17:00 +42°C° 0 mm 3 mps 751 mmHg 17%
    18:00 +42°C° 0 mm 3 mps 751 mmHg 17%
    19:00 +40°C° 0 mm 3 mps 752 mmHg 18%
    20:00 +39°C° 0 mm 3 mps 752 mmHg 19%
    21:00 +38°C° 0 mm 4 mps 752 mmHg 20%
    22:00 +37°C° 0 mm 4 mps 752 mmHg 20%
    23:00 +36°C° 0 mm 4 mps 752 mmHg 21%

    22 August, Tuesday

    Time Temperature Precipitation Wind Pressure Humidity
    00:00 +36°C° 0 mm 4 mps 752 mmHg 22%
    01:00 +35°C° 0 mm 4 mps 752 mmHg 25%
    02:00 +34°C° 0 mm 3 mps 752 mmHg 28%
    03:00 +33°C° 0 mm 3 mps 752 mmHg 30%
    04:00 +33°C° 0 mm 3 mps 753 mmHg 34%
    05:00 +31°C° 0 mm 3 mps 753 mmHg 38%
    06:00 +31°C° 0 mm 3 mps 754 mmHg 42%
    07:00 +33°C° 0 mm 3 mps 754 mmHg 40%
    08:00 +34°C° 0 mm 3 mps 754 mmHg 37%
    09:00 +35°C° 0 mm 4 mps 754 mmHg 35%
    10:00 +36°C° 0 mm 3 mps 754 mmHg 33%
    11:00 +37°C° 0 mm 3 mps 753 mmHg 30%
    12:00 +38°C° 0 mm 3 mps 753 mmHg 28%
    13:00 +38°C° 0 mm 3 mps 752 mmHg 26%
    14:00 +39°C° 0 mm 2 mps 752 mmHg 25%
    15:00 +39°C° 0 mm 2 mps 751 mmHg 23%
    16:00 +39°C° 0 mm 2 mps 751 mmHg 23%
    17:00 +39°C° 0 mm 2 mps 751 mmHg 23%
    18:00 +39°C° 0 mm 2 mps 751 mmHg 22%
    19:00 +38°C° 0 mm 2 mps 752 mmHg 24%
    20:00 +38°C° 0 mm 2 mps 752 mmHg 25%
    21:00 +36°C° 0 mm 1 mps 752 mmHg 26%
    22:00 +37°C° 0 mm 2 mps 752 mmHg 28%
    23:00 +36°C° 0 mm 2 mps 752 mmHg 29%

    23 August, Wednesday

    Time Temperature Precipitation Wind Pressure Humidity
    00:00 +35°C° 0 mm 2 mps 752 mmHg 31%
    01:00 +34°C° 0 mm 3 mps 752 mmHg 34%
    02:00 +33°C° 0 mm 4 mps 752 mmHg 37%
    03:00 +32°C° 0 mm 5 mps 752 mmHg 41%
    04:00 +32°C° 0 mm 4 mps 752 mmHg 44%
    05:00 +32°C° 0 mm 4 mps 753 mmHg 47%
    06:00 +30°C° 0 mm 4 mps 753 mmHg 50%
    07:00 +32°C° 0 mm 4 mps 753 mmHg 47%
    08:00 +33°C° 0 mm 4 mps 754 mmHg 44%
    09:00 +34°C° 0 mm 4 mps 754 mmHg 41%
    10:00 +35°C° 0 mm 4 mps 754 mmHg 38%
    11:00 +36°C° 0 mm 3 mps 753 mmHg 35%
    12:00 +37°C° 0 mm 3 mps 753 mmHg 31%
    13:00 +38°C° 0 mm 3 mps 752 mmHg 30%
    14:00 +38°C° 0 mm 3 mps 752 mmHg 28%
    15:00 +39°C° 0 mm 2 mps 751 mmHg 26%
    16:00 +39°C° 0 mm 2 mps 751 mmHg 26%
    17:00 +39°C° 0 mm 2 mps 751 mmHg 25%
    18:00 +38°C° 0 mm 3 mps 751 mmHg 25%
    19:00 +38°C° 0 mm 2 mps 752 mmHg 26%
    20:00 +37°C° 0 mm 2 mps 752 mmHg 27%
    21:00 +37°C° 0 mm 2 mps 752 mmHg 28%
    22:00 +36°C° 0 mm 2 mps 752 mmHg 30%
    23:00 +36°C° 0 mm 2 mps 752 mmHg 31%
    Show more